TimeMDT,TemperatureF,Dew PointF,Humidity,Sea Level PressureIn,VisibilityMPH,Wind Direction,Wind SpeedMPH,Gust SpeedMPH,PrecipitationIn,Events,Conditions,WindDirDegrees,DateUTC
12:53 AM,59.0,37.0,44,29.96,10.0,SW,13.8,-,N/A,,Scattered Clouds,220,2013-05-13 06:53:00
1:53 AM,60.1,35.1,39,29.95,10.0,SSW,13.8,-,N/A,,Clear,210,2013-05-13 07:53:00
2:53 AM,57.9,35.1,42,29.94,10.0,SW,11.5,-,N/A,,Scattered Clouds,220,2013-05-13 08:53:00
3:53 AM,57.9,35.1,42,29.95,10.0,SW,12.7,-,N/A,,Partly Cloudy,220,2013-05-13 09:53:00
4:53 AM,59.0,34.0,39,29.94,10.0,SW,13.8,-,N/A,,Mostly Cloudy,220,2013-05-13 10:53:00
5:53 AM,57.0,34.0,42,29.96,10.0,SW,11.5,-,N/A,,Mostly Cloudy,230,2013-05-13 11:53:00
6:53 AM,59.0,36.0,42,29.98,10.0,SW,12.7,-,N/A,,Overcast,220,2013-05-13 12:53:00
7:53 AM,64.0,39.9,41,30.00,10.0,SW,9.2,-,N/A,,Mostly Cloudy,230,2013-05-13 13:53:00
8:53 AM,72.0,37.0,28,30.00,10.0,WSW,9.2,-,N/A,,Mostly Cloudy,240,2013-05-13 14:53:00
9:53 AM,77.0,35.1,22,29.98,10.0,West,9.2,-,N/A,,Mostly Cloudy,280,2013-05-13 15:53:00
10:53 AM,79.0,36.0,21,29.98,10.0,North,9.2,-,N/A,,Mostly Cloudy,350,2013-05-13 16:53:00
11:53 AM,81.0,34.0,18,29.98,10.0,Variable,4.6,-,N/A,,Mostly Cloudy,0,2013-05-13 17:53:00
12:53 PM,82.0,36.0,19,29.96,10.0,ENE,9.2,-,N/A,,Mostly Cloudy,70,2013-05-13 18:53:00
2:53 PM,82.9,33.1,17,29.93,10.0,Calm,Calm,-,N/A,,Mostly Cloudy,0,2013-05-13 20:53:00
3:53 PM,84.0,35.1,17,29.91,10.0,NW,5.8,-,N/A,,Mostly Cloudy,320,2013-05-13 21:53:00
4:53 PM,82.9,34.0,17,29.89,10.0,NE,3.5,-,N/A,,Mostly Cloudy,40,2013-05-13 22:53:00
5:53 PM,80.6,37.4,21,30.11,10.0,SSE,9.2,-,N/A,,Mostly Cloudy,150,2013-05-13 23:53:00
6:53 PM,75.9,43.0,31,29.89,10.0,SSE,8.1,-,N/A,,Mostly Cloudy,150,2013-05-14 00:53:00
7:53 PM,73.0,39.0,29,29.89,10.0,South,10.4,-,N/A,,Mostly Cloudy,190,2013-05-14 01:53:00
8:53 PM,70.0,37.9,31,29.87,10.0,South,13.8,-,N/A,,Mostly Cloudy,190,2013-05-14 02:53:00
9:53 PM,68.0,37.9,33,29.86,10.0,South,15.0,-,N/A,,Mostly Cloudy,190,2013-05-14 03:53:00
10:53 PM,66.9,39.0,36,29.85,10.0,SSW,15.0,-,N/A,,Mostly Cloudy,200,2013-05-14 04:53:00
11:53 PM,64.9,39.0,39,29.83,10.0,SSW,15.0,-,N/A,,Scattered Clouds,210,2013-05-14 05:53:00